Content
SEND FEEDBACK

Daily
Averages
Monthly
Summary
United States of America

SCHUYLER, NEBRASKA


Home > North America > United States > Nebraska
Elevation: 1350 feet     Latitude: 41 26N     Longitude: 097 03W

WEATHER
 
SELECT A DAY
Number of Records: 458,230;   Date Range: 1/1/95 - 8/12/14
 
SHARE

PRINT THIS DATA

[ ← Previous Day ]
WEATHER ALMANAC - FEBRUARY 13, 2013
[ Next Day → ]
[ °C ]   °F
Weather ElementAverageHighLow
Temperature38.8 °F55.4 °F (2:55 pm)23 °F (5:35 am)
Dewpoint23.4 °F28.4 °F (10:55 pm)17.6 °F (12:35 am)
Humidity57.2 %80 % (5:35 am)29 % (2:55 pm)
Barometer29.81 in29.90 in (12:35 am)29.72 in (3:55 pm)
Wind Speed8.1 mph18.4 mph (4:35 pm)
Wind Gust23 mph (1:55 pm)
Weather ElementAverage
Visibility10 mi
Wind DirectionWSW (254.1 °)

Weather ElementTotal
Precipitation---
Heating Degree Days25.8 (Base 65)
Averaged from 71 records on February 13, 2013
WEATHER CONDITIONS BREAKOUT
WIND DIRECTION BREAKOUT
WEATHER BY HOUR - FEBRUARY 13, 2013
[ °C ]   °F
Local TimeTemperatureDewpointHumidityBarometerVisibilityWind DirectionWind SpeedGust SpeedPrecipitationEventsConditions
12:35 AM24.8 °F17.6 °F74 %29.90 in10.0 miWest (280°)3.5 mphClear
12:55 AM26.6 °F17.6 °F69 %29.89 in10.0 miCalmClear
1:15 AM26.6 °F19.4 °F74 %29.89 in10.0 miWest (270°)6.9 mphClear
1:35 AM26.6 °F19.4 °F74 %29.89 in10.0 miWest (280°)4.6 mphClear
1:55 AM26.6 °F19.4 °F74 %29.89 in10.0 miWest (270°)3.5 mphClear
2:15 AM26.6 °F19.4 °F74 %29.88 in10.0 miWest (270°)5.8 mphClear
2:35 AM26.6 °F19.4 °F74 %29.89 in10.0 miWest (260°)5.8 mphClear
2:55 AM26.6 °F19.4 °F74 %29.88 in10.0 miWest (260°)4.6 mphClear
3:15 AM26.6 °F19.4 °F74 %29.88 in10.0 miWest (260°)3.5 mphClear
3:35 AM26.6 °F19.4 °F74 %29.87 in10.0 miWest (260°)3.5 mphClear
3:55 AM24.8 °F17.6 °F74 %29.87 in10.0 miWSW (250°)3.5 mphPartly Cloudy
4:15 AM26.6 °F19.4 °F74 %29.86 in10.0 miCalmClear
4:35 AM24.8 °F17.6 °F74 %29.85 in10.0 miWest (270°)3.5 mphClear
4:55 AM24.8 °F17.6 °F74 %29.85 in10.0 miSW (230°)3.5 mphPartly Cloudy
5:15 AM26.6 °F19.4 °F74 %29.85 in10.0 miWest (270°)3.5 mphPartly Cloudy
5:35 AM23.0 °F17.6 °F80 %29.85 in10.0 miWSW (240°)3.5 mphClear
5:55 AM26.6 °F19.4 °F74 %29.85 in10.0 miWSW (240°)4.6 mphClear
6:15 AM26.6 °F21.2 °F80 %29.85 in10.0 miWest (270°)4.6 mphClear
6:35 AM26.6 °F21.2 °F80 %29.85 in10.0 miWest (260°)4.6 mphClear
6:55 AM26.6 °F21.2 °F80 %29.84 in10.0 miSW (230°)5.8 mphClear
7:15 AM28.4 °F21.2 °F74 %29.84 in10.0 miWSW (250°)5.8 mphClear
7:35 AM26.6 °F21.2 °F80 %29.85 in10.0 miWest (260°)5.8 mphClear
7:55 AM28.4 °F21.2 °F74 %29.85 in10.0 miSW (230°)4.6 mphClear
8:15 AM26.6 °F19.4 °F74 %29.85 in10.0 miWSW (250°)4.6 mphClear
8:35 AM30.2 °F23.0 °F75 %29.85 in10.0 miWSW (240°)5.8 mphClear
8:55 AM30.2 °F24.8 °F80 %29.85 in10.0 miWest (260°)5.8 mphClear
9:15 AM33.8 °F24.8 °F70 %29.85 in10.0 miWSW (240°)5.8 mphClear
9:35 AM35.6 °F24.8 °F65 %29.84 in10.0 miWSW (250°)6.9 mphClear
9:55 AM35.6 °F26.6 °F70 %29.84 in10.0 miSW (230°)5.8 mphClear
10:15 AM39.2 °F26.6 °F61 %29.84 in10.0 miWSW (250°)9.2 mphClear
10:35 AM39.2 °F26.6 °F61 %29.83 in10.0 miWSW (240°)8.1 mphClear
10:55 AM42.8 °F26.6 °F53 %29.83 in10.0 miWSW (250°)6.9 mphClear
11:15 AM44.6 °F26.6 °F49 %29.83 in10.0 miWSW (240°)6.9 mphClear
11:35 AM46.4 °F26.6 °F46 %29.81 in10.0 miSSW (210°)9.2 mphClear
11:55 AM48.2 °F26.6 °F43 %29.81 in10.0 miSW (230°)8.1 mphClear
12:15 PM50.0 °F26.6 °F40 %29.80 in10.0 miWest (260°)10.4 mphClear
12:35 PM51.8 °F26.6 °F38 %29.80 in10.0 miWest (270°)11.5 mphClear
12:55 PM51.8 °F24.8 °F35 %29.78 in10.0 miWest (270°)11.5 mphClear
1:15 PM51.8 °F26.6 °F38 %29.78 in10.0 miWSW (250°)13.8 mphClear
1:35 PM53.6 °F24.8 °F33 %29.77 in10.0 miWSW (240°)13.8 mph19.6 mphClear
1:55 PM53.6 °F24.8 °F33 %29.76 in10.0 miWest (260°)13.8 mph23.0 mphClear
2:15 PM53.6 °F24.8 °F33 %29.75 in10.0 miWSW (250°)13.8 mphClear
2:35 PM53.6 °F24.8 °F33 %29.73 in10.0 miSW (220°)12.7 mphClear
2:55 PM55.4 °F23.0 °F29 %29.73 in10.0 miWest (270°)13.8 mph20.7 mphClear
3:15 PM55.4 °F23.0 °F29 %29.73 in10.0 miWest (260°)13.8 mphPartly Cloudy
3:35 PM53.6 °F23.0 °F30 %29.73 in10.0 miWest (270°)16.1 mph20.7 mphClear
3:55 PM55.4 °F24.8 °F31 %29.72 in10.0 miWest (260°)13.8 mph18.4 mphPartly Cloudy
4:15 PM55.4 °F24.8 °F31 %29.72 in10.0 miWNW (290°)15.0 mphClear
4:35 PM53.6 °F24.8 °F33 %29.73 in10.0 miWNW (290°)18.4 mphMostly Cloudy
4:55 PM51.8 °F24.8 °F35 %29.73 in10.0 miWest (280°)10.4 mphOvercast
5:15 PM51.8 °F24.8 °F35 %29.74 in10.0 miWest (280°)12.7 mph20.7 mphMostly Cloudy
5:35 PM50.0 °F24.8 °F37 %29.74 in10.0 miWest (280°)12.7 mphMostly Cloudy
5:55 PM48.2 °F24.8 °F40 %29.74 in10.0 miWest (270°)11.5 mphPartly Cloudy
6:15 PM46.4 °F24.8 °F43 %29.74 in10.0 miWest (270°)8.1 mphPartly Cloudy
6:35 PM46.4 °F24.8 °F43 %29.74 in10.0 miWSW (250°)8.1 mphPartly Cloudy
6:55 PM46.4 °F24.8 °F43 %29.75 in10.0 miWest (260°)8.1 mphPartly Cloudy
7:15 PM44.6 °F24.8 °F46 %29.75 in10.0 miWSW (250°)6.9 mphMostly Cloudy
7:35 PM44.6 °F26.6 °F49 %29.76 in10.0 miWest (270°)6.9 mphOvercast
7:55 PM44.6 °F26.6 °F49 %29.76 in10.0 miWest (260°)9.2 mphOvercast
8:15 PM42.8 °F26.6 °F53 %29.76 in10.0 miWest (260°)8.1 mphMostly Cloudy
8:35 PM41.0 °F24.8 °F53 %29.77 in10.0 miWest (260°)8.1 mphPartly Cloudy
8:55 PM35.6 °F21.2 °F56 %29.76 in10.0 miWest (280°)4.6 mphClear
9:15 PM33.8 °F23.0 °F65 %29.77 in10.0 miWest (280°)4.6 mphClear
9:35 PM37.4 °F26.6 °F65 %29.77 in10.0 miWest (280°)5.8 mphMostly Cloudy
9:55 PM39.2 °F26.6 °F61 %29.78 in10.0 miWest (280°)9.2 mphOvercast
10:15 PM39.2 °F26.6 °F61 %29.79 in10.0 miWNW (290°)9.2 mphOvercast
10:35 PM39.2 °F26.6 °F61 %29.79 in10.0 miWest (280°)8.1 mphOvercast
10:55 PM41.0 °F28.4 °F61 %29.79 in10.0 miWNW (300°)10.4 mphOvercast
11:15 PM42.8 °F26.6 °F53 %29.81 in10.0 miWNW (300°)13.8 mphOvercast
11:35 PM42.8 °F26.6 °F53 %29.82 in10.0 miWNW (300°)13.8 mphOvercast
11:55 PM41.0 °F26.6 °F57 %29.82 in10.0 miWNW (300°)12.7 mphMostly Cloudy
Hourly data recorded from KOLU, located miles away from Schuyler, Nebraska







STORIES FROM OUR PARTNERS